Location: Home
(42.5358°N, 72.7383°W)
Time: 12:32:15
(UTC-05:00)

Tiros 1 - Pass Details

Date: 04 December 2021
Orbit: 629 x 664 km, 48.4° (Epoch: 26 January)

Event Time Altitude Azimuth Distance (km) Brightness Sun altitude
Rises 18:37:43 0° 245° (WSW) 2,913 11.7 -25.0°
Reaches altitude 10° 18:40:01 10° 246° (WSW) 2,011 10.6 -25.4°
Enters shadow 18:44:13 72° 268° (W) 670 7.2 -26.2°
Maximum altitude 18:44:40 83° 335° (NNW) 647 - -26.3°
Drops below altitude 10° 18:49:22 10° 63° (ENE) 2,038 - -27.1°
Sets 18:51:43 0° 64° (ENE) 2,956 - -27.6°
